date,time,SUV Intensity [MED/Hr],UV Index,Daily total [MED],Since Last [MED]
01/03/2022,00:05:14,0.000,0.0,0.0,0.0
01/03/2022,00:06:22,0.000,0.0,0.0,0.0
01/03/2022,00:07:22,0.000,0.0,0.0,0.0
01/03/2022,00:08:13,0.000,0.0,0.0,0.0
01/03/2022,00:09:14,0.000,0.0,0.0,0.0
01/03/2022,00:10:14,0.000,0.0,0.0,0.0
01/03/2022,00:11:14,0.000,0.0,0.0,0.0
01/03/2022,00:12:13,0.000,0.0,0.0,0.0
01/03/2022,00:13:14,0.000,0.0,0.0,0.0
01/03/2022,00:14:13,0.000,0.0,0.0,0.0
01/03/2022,00:15:14,0.000,0.0,0.0,0.0
01/03/2022,00:16:14,0.000,0.0,0.0,0.0
01/03/2022,00:17:14,0.000,0.0,0.0,0.0
01/03/2022,00:18:14,0.000,0.0,0.0,0.0
01/03/2022,00:19:13,0.000,0.0,0.0,0.0
01/03/2022,00:20:22,0.000,0.0,0.0,0.0
01/03/2022,00:21:14,0.000,0.0,0.0,0.0
01/03/2022,00:22:14,0.000,0.0,0.0,0.0
01/03/2022,00:23:14,0.000,0.0,0.0,0.0
01/03/2022,00:24:13,0.000,0.0,0.0,0.0
01/03/2022,00:25:13,0.000,0.0,0.0,0.0
01/03/2022,00:26:15,-0.000,0.0,0.0,0.0
01/03/2022,00:27:14,0.000,0.0,0.0,0.0
01/03/2022,00:28:14,0.000,0.0,0.0,0.0
01/03/2022,00:29:13,0.000,0.0,0.0,0.0
01/03/2022,00:30:22,0.000,0.0,0.0,0.0
01/03/2022,00:31:13,0.000,0.0,0.0,0.0
01/03/2022,00:32:14,0.000,0.0,0.0,0.0
01/03/2022,00:33:22,0.000,0.0,0.0,0.0
01/03/2022,00:34:13,0.000,0.0,0.0,0.0
01/03/2022,00:35:14,0.000,0.0,0.0,0.0
01/03/2022,00:36:22,0.000,0.0,0.0,0.0
01/03/2022,00:37:14,0.000,0.0,0.0,0.0
01/03/2022,00:38:14,0.000,0.0,0.0,0.0
01/03/2022,00:39:14,0.000,0.0,0.0,0.0
01/03/2022,00:40:13,-0.001,0.0,0.0,0.0
01/03/2022,00:41:14,0.000,0.0,0.0,0.0
01/03/2022,00:42:14,0.000,0.0,0.0,0.0
01/03/2022,00:43:14,0.000,0.0,0.0,0.0
01/03/2022,00:44:13,0.000,0.0,0.0,0.0
01/03/2022,00:45:14,0.000,0.0,0.0,0.0
01/03/2022,00:46:22,0.000,0.0,0.0,0.0
01/03/2022,00:47:14,0.000,0.0,0.0,0.0
01/03/2022,00:48:14,0.000,0.0,0.0,0.0
01/03/2022,00:49:22,0.000,0.0,0.0,0.0
01/03/2022,00:50:14,0.000,0.0,0.0,0.0
01/03/2022,00:51:14,0.000,0.0,0.0,0.0
01/03/2022,00:52:13,0.001,0.0,0.0,0.0
01/03/2022,00:53:13,0.000,0.0,0.0,0.0
01/03/2022,00:54:14,0.000,0.0,0.0,0.0
01/03/2022,00:55:14,0.000,0.0,0.0,0.0
01/03/2022,00:56:14,0.000,0.0,0.0,0.0
01/03/2022,00:57:14,0.000,0.0,0.0,0.0
01/03/2022,00:59:15,0.000,0.0,0.0,0.0
01/03/2022,01:00:13,0.000,0.0,0.0,0.0
01/03/2022,01:01:14,0.000,0.0,0.0,0.0
01/03/2022,01:02:14,0.000,0.0,0.0,0.0
01/03/2022,01:03:14,0.000,0.0,0.0,0.0
01/03/2022,01:04:13,0.000,0.0,0.0,0.0
01/03/2022,01:05:13,0.000,0.0,0.0,0.0
01/03/2022,01:06:13,0.000,0.0,0.0,0.0
01/03/2022,01:07:13,-0.000,0.0,0.0,0.0
01/03/2022,01:08:13,0.000,0.0,0.0,0.0
01/03/2022,01:09:22,0.000,0.0,0.0,0.0
01/03/2022,01:10:14,0.000,0.0,0.0,0.0
01/03/2022,01:11:14,0.000,0.0,0.0,0.0
01/03/2022,01:12:01,0.000,0.0,0.0,0.0
01/03/2022,01:13:14,0.000,0.0,0.0,0.0
01/03/2022,01:14:14,0.000,0.0,0.0,0.0
01/03/2022,01:15:22,0.000,0.0,0.0,0.0
01/03/2022,01:16:14,0.000,0.0,0.0,0.0
01/03/2022,01:17:13,0.000,0.0,0.0,0.0
01/03/2022,01:18:14,0.000,0.0,0.0,0.0
01/03/2022,01:19:14,0.000,0.0,0.0,0.0
01/03/2022,01:20:14,0.000,0.0,0.0,0.0
01/03/2022,01:21:14,0.000,0.0,0.0,0.0
01/03/2022,01:22:14,0.000,0.0,0.0,0.0
01/03/2022,01:23:14,-0.000,0.0,0.0,0.0
01/03/2022,01:24:14,0.000,0.0,0.0,0.0
01/03/2022,01:25:22,0.000,0.0,0.0,0.0
01/03/2022,01:26:13,0.000,0.0,0.0,0.0
01/03/2022,01:27:14,0.000,0.0,0.0,0.0
01/03/2022,01:28:14,0.000,0.0,0.0,0.0
01/03/2022,01:29:14,0.000,0.0,0.0,0.0
01/03/2022,01:30:14,0.000,0.0,0.0,0.0
01/03/2022,01:31:13,0.000,0.0,0.0,0.0
01/03/2022,01:32:13,0.000,0.0,0.0,0.0
01/03/2022,01:33:14,0.000,0.0,0.0,0.0
01/03/2022,01:34:14,0.000,0.0,0.0,0.0
01/03/2022,01:35:22,0.000,0.0,0.0,0.0
01/03/2022,01:36:13,0.000,0.0,0.0,0.0
01/03/2022,01:37:14,0.000,0.0,0.0,0.0
01/03/2022,01:38:22,0.000,0.0,0.0,0.0
01/03/2022,01:39:14,0.000,0.0,0.0,0.0
01/03/2022,01:40:13,0.000,0.0,0.0,0.0
01/03/2022,01:41:13,0.000,0.0,0.0,0.0
01/03/2022,01:42:14,0.000,0.0,0.0,0.0
01/03/2022,01:43:14,0.000,0.0,0.0,0.0
01/03/2022,01:44:14,0.000,0.0,0.0,0.0
01/03/2022,01:45:14,0.000,0.0,0.0,0.0
01/03/2022,01:46:14,0.000,0.0,0.0,0.0
01/03/2022,01:47:22,0.000,0.0,0.0,0.0
01/03/2022,01:48:13,0.000,0.0,0.0,0.0
01/03/2022,01:49:13,0.000,0.0,0.0,0.0
01/03/2022,01:50:14,0.000,0.0,0.0,0.0
01/03/2022,01:51:14,0.000,0.0,0.0,0.0
01/03/2022,01:52:13,0.000,0.0,0.0,0.0
01/03/2022,01:53:14,0.000,0.0,0.0,0.0
01/03/2022,01:54:14,0.000,0.0,0.0,0.0
01/03/2022,01:55:14,0.000,0.0,0.0,0.0
01/03/2022,01:56:13,0.000,0.0,0.0,0.0
01/03/2022,01:57:13,0.000,0.0,0.0,0.0
01/03/2022,01:58:14,0.000,0.0,0.0,0.0
01/03/2022,01:59:14,0.000,0.0,0.0,0.0
01/03/2022,02:00:14,0.000,0.0,0.0,0.0
01/03/2022,02:01:13,-0.000,0.0,0.0,0.0
01/03/2022,02:02:14,0.000,0.0,0.0,0.0
01/03/2022,02:03:14,0.000,0.0,0.0,0.0
01/03/2022,02:04:15,0.000,0.0,0.0,0.0
01/03/2022,02:05:14,0.000,0.0,0.0,0.0
01/03/2022,02:06:14,0.000,0.0,0.0,0.0
01/03/2022,02:07:14,0.000,0.0,0.0,0.0
01/03/2022,02:08:22,0.000,0.0,0.0,0.0
01/03/2022,02:09:14,0.000,0.0,0.0,0.0
01/03/2022,02:10:14,0.000,0.0,0.0,0.0
01/03/2022,02:11:13,0.000,0.0,0.0,0.0
01/03/2022,02:12:14,0.000,0.0,0.0,0.0
01/03/2022,02:13:14,0.000,0.0,0.0,0.0
01/03/2022,02:14:14,0.000,0.0,0.0,0.0
01/03/2022,02:15:14,0.000,0.0,0.0,0.0
01/03/2022,02:16:14,0.000,0.0,0.0,0.0
01/03/2022,02:17:14,0.000,0.0,0.0,0.0
01/03/2022,02:18:14,-0.000,0.0,0.0,0.0
01/03/2022,02:19:14,0.000,0.0,0.0,0.0
01/03/2022,02:20:14,0.000,0.0,0.0,0.0
01/03/2022,02:21:23,0.000,0.0,0.0,0.0
01/03/2022,02:22:12,0.000,0.0,0.0,0.0
01/03/2022,02:23:14,0.000,0.0,0.0,0.0
01/03/2022,02:24:22,0.000,0.0,0.0,0.0
01/03/2022,02:25:14,0.000,0.0,0.0,0.0
01/03/2022,02:26:14,0.000,0.0,0.0,0.0
01/03/2022,02:27:14,0.000,0.0,0.0,0.0
01/03/2022,02:28:14,0.000,0.0,0.0,0.0
01/03/2022,02:29:13,0.000,0.0,0.0,0.0
01/03/2022,02:30:14,0.000,0.0,0.0,0.0
01/03/2022,02:31:14,0.000,0.0,0.0,0.0
01/03/2022,02:32:13,0.000,0.0,0.0,0.0
01/03/2022,02:33:14,0.000,0.0,0.0,0.0
01/03/2022,02:34:14,0.000,0.0,0.0,0.0
01/03/2022,02:35:14,0.000,0.0,0.0,0.0
01/03/2022,02:36:14,0.000,0.0,0.0,0.0
01/03/2022,02:37:23,0.000,0.0,0.0,0.0
01/03/2022,02:38:14,0.000,0.0,0.0,0.0
01/03/2022,02:39:22,0.000,0.0,0.0,0.0
01/03/2022,02:40:14,0.000,0.0,0.0,0.0
01/03/2022,02:41:14,0.000,0.0,0.0,0.0
01/03/2022,02:42:14,0.000,0.0,0.0,0.0
01/03/2022,02:43:14,0.000,0.0,0.0,0.0
01/03/2022,02:44:14,0.000,0.0,0.0,0.0
01/03/2022,02:45:14,0.000,0.0,0.0,0.0
01/03/2022,02:46:14,0.000,0.0,0.0,0.0
01/03/2022,02:47:22,0.000,0.0,0.0,0.0
01/03/2022,02:48:14,0.000,0.0,0.0,0.0
01/03/2022,02:49:14,0.000,0.0,0.0,0.0
01/03/2022,02:50:13,0.000,0.0,0.0,0.0
01/03/2022,02:51:14,0.000,0.0,0.0,0.0
01/03/2022,02:52:14,0.000,0.0,0.0,0.0
01/03/2022,02:53:14,0.000,0.0,0.0,0.0
01/03/2022,02:54:14,0.000,0.0,0.0,0.0
01/03/2022,02:55:14,0.000,0.0,0.0,0.0
01/03/2022,02:56:14,0.000,0.0,0.0,0.0
01/03/2022,02:57:13,0.000,0.0,0.0,0.0
01/03/2022,02:58:14,0.000,0.0,0.0,0.0
01/03/2022,02:59:14,0.000,0.0,0.0,0.0
01/03/2022,03:00:14,0.000,0.0,0.0,0.0
01/03/2022,03:01:23,0.000,0.0,0.0,0.0
01/03/2022,03:02:14,0.000,0.0,0.0,0.0
01/03/2022,03:03:14,0.000,0.0,0.0,0.0
01/03/2022,03:04:14,0.000,0.0,0.0,0.0
01/03/2022,03:05:13,0.000,0.0,0.0,0.0
01/03/2022,03:06:14,0.000,0.0,0.0,0.0
01/03/2022,03:07:14,0.000,0.0,0.0,0.0
01/03/2022,03:08:14,0.000,0.0,0.0,0.0
01/03/2022,03:09:14,0.000,0.0,0.0,0.0
01/03/2022,03:10:14,0.000,0.0,0.0,0.0
01/03/2022,03:11:14,0.000,0.0,0.0,0.0
01/03/2022,03:12:14,0.000,0.0,0.0,0.0
01/03/2022,03:13:14,0.000,0.0,0.0,0.0
01/03/2022,03:14:14,0.000,0.0,0.0,0.0
01/03/2022,03:15:14,0.000,0.0,0.0,0.0
01/03/2022,03:16:14,0.000,0.0,0.0,0.0
01/03/2022,03:17:14,0.000,0.0,0.0,0.0
01/03/2022,03:18:14,0.000,0.0,0.0,0.0
01/03/2022,03:19:14,0.000,0.0,0.0,0.0
01/03/2022,03:20:14,0.000,0.0,0.0,0.0
01/03/2022,03:21:14,0.000,0.0,0.0,0.0
01/03/2022,03:22:14,0.000,0.0,0.0,0.0
01/03/2022,03:23:14,0.000,0.0,0.0,0.0
01/03/2022,03:24:14,0.000,0.0,0.0,0.0
01/03/2022,03:25:14,0.000,0.0,0.0,0.0
01/03/2022,03:26:14,0.000,0.0,0.0,0.0
01/03/2022,03:27:24,0.000,0.0,0.0,0.0
01/03/2022,03:28:14,0.000,0.0,0.0,0.0
01/03/2022,03:29:13,0.000,0.0,0.0,0.0
01/03/2022,03:30:14,0.000,0.0,0.0,0.0
01/03/2022,03:31:14,0.000,0.0,0.0,0.0
01/03/2022,03:32:15,0.000,0.0,0.0,0.0
01/03/2022,03:33:14,0.000,0.0,0.0,0.0
01/03/2022,03:34:14,0.000,0.0,0.0,0.0
01/03/2022,03:35:13,0.000,0.0,0.0,0.0
01/03/2022,03:36:14,0.000,0.0,0.0,0.0
01/03/2022,03:37:22,0.000,0.0,0.0,0.0
01/03/2022,03:38:14,0.000,0.0,0.0,0.0
01/03/2022,03:39:14,0.000,0.0,0.0,0.0
01/03/2022,03:40:14,0.000,0.0,0.0,0.0
01/03/2022,03:41:14,0.000,0.0,0.0,0.0
01/03/2022,03:42:14,0.000,0.0,0.0,0.0
01/03/2022,03:43:14,0.000,0.0,0.0,0.0
01/03/2022,03:44:14,0.000,0.0,0.0,0.0
01/03/2022,03:45:13,0.000,0.0,0.0,0.0
01/03/2022,03:46:14,0.000,0.0,0.0,0.0
01/03/2022,03:47:22,0.000,0.0,0.0,0.0
01/03/2022,03:48:14,0.000,0.0,0.0,0.0
01/03/2022,03:49:14,0.000,0.0,0.0,0.0
01/03/2022,03:50:22,0.000,0.0,0.0,0.0
01/03/2022,03:51:13,0.000,0.0,0.0,0.0
01/03/2022,03:52:16,0.000,0.0,0.0,0.0
01/03/2022,03:53:22,0.000,0.0,0.0,0.0
01/03/2022,03:54:14,0.000,0.0,0.0,0.0
01/03/2022,03:55:14,0.000,0.0,0.0,0.0
01/03/2022,03:56:14,0.000,0.0,0.0,0.0
01/03/2022,03:57:14,0.000,0.0,0.0,0.0
01/03/2022,03:58:14,0.000,0.0,0.0,0.0
01/03/2022,03:59:14,0.000,0.0,0.0,0.0
01/03/2022,04:00:14,0.000,0.0,0.0,0.0
01/03/2022,04:01:14,0.000,0.0,0.0,0.0
01/03/2022,04:02:23,0.001,0.0,0.0,0.0
01/03/2022,04:03:13,0.000,0.0,0.0,0.0
01/03/2022,04:04:14,0.000,0.0,0.0,0.0
01/03/2022,04:05:13,0.000,0.0,0.0,0.0
01/03/2022,04:06:23,0.000,0.0,0.0,0.0
01/03/2022,04:07:14,0.000,0.0,0.0,0.0
01/03/2022,04:08:14,0.000,0.0,0.0,0.0
01/03/2022,04:09:14,0.000,0.0,0.0,0.0
01/03/2022,04:10:14,-0.000,0.0,0.0,0.0
01/03/2022,04:11:13,0.000,0.0,0.0,0.0
01/03/2022,04:12:14,0.000,0.0,0.0,0.0
01/03/2022,04:13:14,0.000,0.0,0.0,0.0
01/03/2022,04:14:14,0.000,0.0,0.0,0.0
01/03/2022,04:15:14,0.000,0.0,0.0,0.0
01/03/2022,04:16:22,0.000,0.0,0.0,0.0
01/03/2022,04:17:14,0.000,0.0,0.0,0.0
01/03/2022,04:18:14,0.000,0.0,0.0,0.0
01/03/2022,04:19:14,0.000,0.0,0.0,0.0
01/03/2022,04:20:14,0.000,0.0,0.0,0.0
01/03/2022,04:21:14,0.000,0.0,0.0,0.0
01/03/2022,04:22:14,0.000,0.0,0.0,0.0
01/03/2022,04:23:14,0.000,0.0,0.0,0.0
01/03/2022,04:24:14,0.000,0.0,0.0,0.0
01/03/2022,04:25:14,0.000,0.0,0.0,0.0
01/03/2022,04:26:22,0.000,0.0,0.0,0.0
01/03/2022,04:27:14,0.000,0.0,0.0,0.0
01/03/2022,04:28:14,0.000,0.0,0.0,0.0
01/03/2022,04:29:14,0.000,0.0,0.0,0.0
01/03/2022,04:30:14,0.000,0.0,0.0,0.0
01/03/2022,04:31:14,0.000,0.0,0.0,0.0
01/03/2022,04:32:14,0.000,0.0,0.0,0.0
01/03/2022,04:33:14,0.001,0.0,0.0,0.0
01/03/2022,04:34:14,0.001,0.0,0.0,0.0
01/03/2022,04:35:14,0.000,0.0,0.0,0.0
01/03/2022,04:36:15,0.000,0.0,0.0,0.0
01/03/2022,04:37:14,0.000,0.0,0.0,0.0
01/03/2022,04:38:14,0.000,0.0,0.0,0.0
01/03/2022,04:39:14,0.000,0.0,0.0,0.0
01/03/2022,04:40:22,0.000,0.0,0.0,0.0
01/03/2022,04:41:14,0.000,0.0,0.0,0.0
01/03/2022,04:42:14,0.000,0.0,0.0,0.0
01/03/2022,04:43:14,0.000,0.0,0.0,0.0
01/03/2022,04:44:15,0.000,0.0,0.0,0.0
01/03/2022,04:45:14,0.000,0.0,0.0,0.0
01/03/2022,04:46:14,0.000,0.0,0.0,0.0
01/03/2022,04:47:14,0.000,0.0,0.0,0.0
01/03/2022,04:48:14,0.000,0.0,0.0,0.0
01/03/2022,04:49:14,0.000,0.0,0.0,0.0
01/03/2022,04:50:22,0.000,0.0,0.0,0.0
01/03/2022,04:51:14,0.000,0.0,0.0,0.0
01/03/2022,04:52:14,0.000,0.0,0.0,0.0
01/03/2022,04:53:14,0.000,0.0,0.0,0.0
01/03/2022,04:54:14,0.000,0.0,0.0,0.0
01/03/2022,04:55:14,0.000,0.0,0.0,0.0
01/03/2022,04:56:14,0.000,0.0,0.0,0.0
01/03/2022,04:57:14,0.000,0.0,0.0,0.0
01/03/2022,04:58:15,0.000,0.0,0.0,0.0
01/03/2022,04:59:14,0.000,0.0,0.0,0.0
01/03/2022,05:00:16,0.000,0.0,0.0,0.0
01/03/2022,05:01:14,0.001,0.0,0.0,0.0
01/03/2022,05:02:15,0.000,0.0,0.0,0.0
01/03/2022,05:03:14,0.000,0.0,0.0,0.0
01/03/2022,05:04:14,0.001,0.0,0.0,0.0
01/03/2022,05:05:14,0.000,0.0,0.0,0.0
01/03/2022,05:06:23,0.000,0.0,0.0,0.0
01/03/2022,05:07:14,0.000,0.0,0.0,0.0
01/03/2022,05:08:14,0.000,0.0,0.0,0.0
01/03/2022,05:09:14,0.000,0.0,0.0,0.0
01/03/2022,05:10:14,0.000,0.0,0.0,0.0
01/03/2022,05:11:14,0.000,0.0,0.0,0.0
01/03/2022,05:12:14,0.000,0.0,0.0,0.0
01/03/2022,05:13:14,0.001,0.0,0.0,0.0
01/03/2022,05:14:15,0.000,0.0,0.0,0.0
01/03/2022,05:15:14,0.000,0.0,0.0,0.0
01/03/2022,05:16:22,0.000,0.0,0.0,0.0
01/03/2022,05:17:14,0.000,0.0,0.0,0.0
01/03/2022,05:18:14,0.000,0.0,0.0,0.0
01/03/2022,05:19:14,0.000,0.0,0.0,0.0
01/03/2022,05:20:14,0.000,0.0,0.0,0.0
01/03/2022,05:21:14,0.000,0.0,0.0,0.0
01/03/2022,05:22:14,0.000,0.0,0.0,0.0
01/03/2022,05:23:14,0.000,0.0,0.0,0.0
01/03/2022,05:24:14,0.000,0.0,0.0,0.0
01/03/2022,05:25:14,0.000,0.0,0.0,0.0
01/03/2022,05:26:22,0.000,0.0,0.0,0.0
01/03/2022,05:27:14,0.000,0.0,0.0,0.0
01/03/2022,05:28:14,0.000,0.0,0.0,0.0
01/03/2022,05:29:22,0.000,0.0,0.0,0.0
01/03/2022,05:30:13,0.000,0.0,0.0,0.0
01/03/2022,05:31:14,0.000,0.0,0.0,0.0
01/03/2022,05:32:14,0.000,0.0,0.0,0.0
01/03/2022,05:33:14,0.000,0.0,0.0,0.0
01/03/2022,05:34:14,0.000,0.0,0.0,0.0
01/03/2022,05:35:14,0.000,0.0,0.0,0.0
01/03/2022,05:36:15,0.000,0.0,0.0,0.0
01/03/2022,05:37:14,0.000,0.0,0.0,0.0
01/03/2022,05:38:14,0.000,0.0,0.0,0.0
01/03/2022,05:39:14,0.001,0.0,0.0,0.0
01/03/2022,05:40:14,0.000,0.0,0.0,0.0
01/03/2022,05:41:15,0.000,0.0,0.0,0.0
01/03/2022,05:42:22,0.000,0.0,0.0,0.0
01/03/2022,05:43:14,0.000,0.0,0.0,0.0
01/03/2022,05:44:14,0.000,0.0,0.0,0.0
01/03/2022,05:45:14,0.000,0.0,0.0,0.0
01/03/2022,05:46:14,0.001,0.0,0.0,0.0
01/03/2022,05:47:14,-0.000,0.0,0.0,0.0
01/03/2022,05:48:14,0.000,0.0,0.0,0.0
01/03/2022,05:49:14,0.000,0.0,0.0,0.0
01/03/2022,05:50:14,0.000,0.0,0.0,0.0
01/03/2022,05:51:14,0.000,0.0,0.0,0.0
01/03/2022,05:52:23,0.000,0.0,0.0,0.0
01/03/2022,05:53:14,0.000,0.0,0.0,0.0
01/03/2022,05:54:14,0.000,0.0,0.0,0.0
01/03/2022,05:55:14,0.000,0.0,0.0,0.0
01/03/2022,05:56:14,0.000,0.0,0.0,0.0
01/03/2022,05:57:14,0.000,0.0,0.0,0.0
01/03/2022,05:58:14,0.000,0.0,0.0,0.0
01/03/2022,05:59:14,0.000,0.0,0.0,0.0
01/03/2022,06:00:14,0.000,0.0,0.0,0.0
01/03/2022,06:01:14,0.000,0.0,0.0,0.0
01/03/2022,06:02:14,0.001,0.0,0.0,0.0
01/03/2022,06:03:15,0.001,0.0,0.0,0.0
01/03/2022,06:04:14,0.000,0.0,0.0,0.0
01/03/2022,06:05:22,0.000,0.0,0.0,0.0
01/03/2022,06:06:14,0.000,0.0,0.0,0.0
01/03/2022,06:07:14,0.000,0.0,0.0,0.0
01/03/2022,06:08:22,0.000,0.0,0.0,0.0
01/03/2022,06:09:14,0.000,0.0,0.0,0.0
01/03/2022,06:10:14,0.000,0.0,0.0,0.0
01/03/2022,06:11:14,0.000,0.0,0.0,0.0
01/03/2022,06:12:14,0.000,0.0,0.0,0.0
01/03/2022,06:13:15,0.000,0.0,0.0,0.0
01/03/2022,06:14:14,0.000,0.0,0.0,0.0
01/03/2022,06:15:14,0.000,0.0,0.0,0.0
01/03/2022,06:16:14,0.000,0.0,0.0,0.0
01/03/2022,06:17:14,0.000,0.0,0.0,0.0
01/03/2022,06:18:14,0.000,0.0,0.0,0.0
01/03/2022,06:19:14,0.000,0.0,0.0,0.0
01/03/2022,06:20:14,0.001,0.0,0.0,0.0
01/03/2022,06:21:15,0.000,0.0,0.0,0.0
01/03/2022,06:22:15,0.000,0.0,0.0,0.0
01/03/2022,06:23:27,0.000,0.0,0.0,0.0
01/03/2022,06:25:14,0.000,0.0,0.0,0.0
01/03/2022,06:26:14,0.000,0.0,0.0,0.0
01/03/2022,06:27:14,0.000,0.0,0.0,0.0
01/03/2022,06:28:14,0.000,0.0,0.0,0.0
01/03/2022,06:29:23,0.000,0.0,0.0,0.0
01/03/2022,06:30:13,0.000,0.0,0.0,0.0
01/03/2022,06:31:14,0.000,0.0,0.0,0.0
01/03/2022,06:32:14,0.000,0.0,0.0,0.0
01/03/2022,06:33:14,0.000,0.0,0.0,0.0
01/03/2022,06:34:14,0.000,0.0,0.0,0.0
01/03/2022,06:35:14,0.000,0.0,0.0,0.0
01/03/2022,06:36:14,0.000,0.0,0.0,0.0
01/03/2022,06:37:15,0.000,0.0,0.0,0.0
01/03/2022,06:38:23,0.000,0.0,0.0,0.0
01/03/2022,06:39:14,0.000,0.0,0.0,0.0
01/03/2022,06:40:14,0.000,0.0,0.0,0.0
01/03/2022,06:41:22,0.000,0.0,0.0,0.0
01/03/2022,06:42:14,0.000,0.0,0.0,0.0
01/03/2022,06:43:15,0.000,0.0,0.0,0.0
01/03/2022,06:44:14,0.000,0.0,0.0,0.0
01/03/2022,06:45:16,0.000,0.0,0.0,0.0
01/03/2022,06:46:14,0.000,0.0,0.0,0.0
01/03/2022,06:47:14,0.000,0.0,0.0,0.0
01/03/2022,06:48:14,0.001,0.0,0.0,0.0
01/03/2022,06:49:14,0.001,0.0,0.0,0.0
01/03/2022,06:50:14,0.000,0.0,0.0,0.0
01/03/2022,06:51:23,0.001,0.0,0.0,0.0
01/03/2022,06:52:15,0.001,0.0,0.0,0.0
01/03/2022,06:53:14,0.001,0.0,0.0,0.0
01/03/2022,06:54:14,0.001,0.0,0.0,0.0
01/03/2022,06:55:14,0.001,0.0,0.0,0.0
01/03/2022,06:56:14,0.001,0.0,0.0,0.0
01/03/2022,06:57:15,0.001,0.0,0.0,0.0
01/03/2022,06:58:14,0.001,0.0,0.0,0.0
01/03/2022,06:59:15,0.000,0.0,0.0,0.0
01/03/2022,07:00:14,0.000,0.0,0.0,0.0
01/03/2022,07:02:15,0.000,0.0,0.0,0.0
01/03/2022,07:03:14,0.002,0.0,0.0,0.0
01/03/2022,07:04:15,0.000,0.0,0.0,0.0
01/03/2022,07:05:14,0.002,0.0,0.0,0.0
01/03/2022,07:06:15,0.002,0.0,0.0,0.0
01/03/2022,07:07:14,0.001,0.0,0.0,0.0
01/03/2022,07:08:14,0.001,0.0,0.0,0.0
01/03/2022,07:09:14,0.002,0.0,0.0,0.0
01/03/2022,07:10:15,0.002,0.0,0.0,0.0
01/03/2022,07:11:16,0.003,0.0,0.0,0.0
01/03/2022,07:12:14,0.002,0.0,0.0,0.0
01/03/2022,07:13:14,0.002,0.0,0.0,0.0
01/03/2022,07:14:14,0.002,0.0,0.0,0.0
01/03/2022,07:15:22,0.002,0.0,0.0,0.0
01/03/2022,07:16:14,0.004,0.0,0.0,0.0
01/03/2022,07:17:14,0.002,0.0,0.0,0.0
01/03/2022,07:18:15,0.003,0.0,0.0,0.0
01/03/2022,07:19:15,0.002,0.0,0.0,0.0
01/03/2022,07:20:15,0.002,0.0,0.0,0.0
01/03/2022,07:21:15,0.003,0.0,0.0,0.0
01/03/2022,07:22:15,0.004,0.0,0.0,0.0
01/03/2022,07:23:14,0.002,0.0,0.0,0.0
01/03/2022,07:24:31,0.003,0.0,0.0,0.0
01/03/2022,07:26:14,0.003,0.0,0.0,0.0
01/03/2022,07:27:14,0.002,0.0,0.0,0.0
01/03/2022,07:29:15,0.004,0.0,0.0,0.0
01/03/2022,07:30:15,0.004,0.0,0.0,0.0
01/03/2022,07:31:15,0.004,0.0,0.0,0.0
01/03/2022,07:32:14,0.005,0.0,0.0,0.0
01/03/2022,07:34:15,0.006,0.0,0.0,0.0
01/03/2022,07:35:14,0.005,0.0,0.0,0.0
01/03/2022,07:36:14,0.007,0.0,0.0,0.0
01/03/2022,07:37:15,0.005,0.0,0.0,0.0
01/03/2022,07:38:15,0.006,0.0,0.0,0.0
01/03/2022,07:39:14,0.007,0.0,0.0,0.0
01/03/2022,07:40:14,0.006,0.0,0.0,0.0
01/03/2022,07:41:22,0.006,0.0,0.0,0.0
01/03/2022,07:42:14,0.006,0.0,0.001,0.001
01/03/2022,07:43:15,0.006,0.0,0.001,0.0
01/03/2022,07:44:15,0.006,0.0,0.001,0.0
01/03/2022,07:45:14,0.007,0.0,0.001,0.0
01/03/2022,07:46:14,0.007,0.0,0.001,0.0
01/03/2022,07:47:14,0.008,0.0,0.001,0.0
01/03/2022,07:48:23,0.009,0.0,0.001,0.0
01/03/2022,07:49:15,0.011,0.0,0.001,0.0
01/03/2022,07:50:14,0.010,0.0,0.002,0.001
01/03/2022,07:51:14,0.009,0.0,0.002,0.0
01/03/2022,07:52:14,0.008,0.0,0.002,0.0
01/03/2022,07:53:14,0.008,0.0,0.002,0.0
01/03/2022,07:54:14,0.008,0.0,0.002,0.0
01/03/2022,07:55:15,0.012,0.0,0.002,0.0
01/03/2022,07:56:14,0.009,0.0,0.002,0.0
01/03/2022,07:57:14,0.010,0.0,0.003,0.001
01/03/2022,07:58:22,0.012,0.0,0.003,0.0
01/03/2022,07:59:14,0.010,0.0,0.003,0.0
01/03/2022,08:00:15,0.010,0.0,0.003,0.0
01/03/2022,08:02:06,0.010,0.0,0.003,0.0
01/03/2022,08:03:06,0.010,0.0,0.004,0.001
01/03/2022,08:04:15,0.010,0.0,0.004,0.0
01/03/2022,08:05:14,0.011,0.0,0.004,0.0
01/03/2022,08:06:14,0.010,0.0,0.004,0.0
01/03/2022,08:07:15,0.011,0.0,0.004,0.0
01/03/2022,08:08:23,0.013,0.0,0.005,0.001
01/03/2022,08:09:15,0.013,0.0,0.005,0.0
01/03/2022,08:10:14,0.013,0.0,0.005,0.0
01/03/2022,08:11:23,0.013,0.0,0.005,0.0
01/03/2022,08:12:14,0.013,0.0,0.005,0.0
01/03/2022,08:13:14,0.013,0.0,0.006,0.001
01/03/2022,08:14:15,0.013,0.0,0.006,0.0
01/03/2022,08:15:15,0.014,0.0,0.006,0.0
01/03/2022,08:16:15,0.014,0.0,0.006,0.0
01/03/2022,08:17:14,0.015,0.0,0.007,0.001
01/03/2022,08:18:14,0.017,0.0,0.007,0.0
01/03/2022,08:19:14,0.018,0.0,0.007,0.0
01/03/2022,08:20:14,0.018,0.0,0.007,0.0
01/03/2022,08:21:23,0.020,0.0,0.008,0.001
01/03/2022,08:22:15,0.021,0.0,0.008,0.0
01/03/2022,08:23:14,0.023,0.0,0.008,0.0
01/03/2022,08:24:22,0.024,0.0,0.009,0.001
01/03/2022,08:25:14,0.025,0.0,0.009,0.0
01/03/2022,08:26:14,0.029,0.0,0.01,0.001
01/03/2022,08:27:15,0.030,0.0,0.01,0.0
01/03/2022,08:28:15,0.029,0.0,0.011,0.001
01/03/2022,08:29:14,0.032,0.0,0.011,0.0
01/03/2022,08:30:14,0.033,0.0,0.012,0.001
01/03/2022,08:31:14,0.030,0.0,0.012,0.0
01/03/2022,08:32:15,0.030,0.0,0.013,0.001
01/03/2022,08:33:15,0.034,0.0,0.013,0.0
01/03/2022,08:34:15,0.035,0.0,0.014,0.001
01/03/2022,08:35:14,0.039,0.0,0.014,0.0
01/03/2022,08:36:14,0.039,0.0,0.015,0.001
01/03/2022,08:37:15,0.042,0.0,0.016,0.001
01/03/2022,08:38:27,0.039,0.0,0.017,0.001
01/03/2022,08:40:16,0.043,0.0,0.018,0.001
01/03/2022,08:41:14,0.042,0.0,0.019,0.001
01/03/2022,08:42:14,0.040,0.0,0.019,0.0
01/03/2022,08:43:15,0.036,0.0,0.02,0.001
01/03/2022,08:44:15,0.036,0.0,0.02,0.0
01/03/2022,08:45:14,0.041,0.0,0.021,0.001
01/03/2022,08:46:14,0.038,0.0,0.022,0.001
01/03/2022,08:47:14,0.037,0.0,0.022,0.0
01/03/2022,08:48:15,0.035,0.0,0.023,0.001
01/03/2022,08:49:15,0.035,0.0,0.024,0.001
01/03/2022,08:50:14,0.039,0.0,0.024,0.0
01/03/2022,08:51:14,0.037,0.0,0.025,0.001
01/03/2022,08:52:14,0.041,0.0,0.025,0.0
01/03/2022,08:53:15,0.044,0.0,0.026,0.001
01/03/2022,08:54:15,0.043,0.0,0.027,0.001
01/03/2022,08:55:15,0.043,0.0,0.028,0.001
01/03/2022,08:56:14,0.050,0.0,0.028,0.0
01/03/2022,08:57:14,0.050,0.0,0.029,0.001
01/03/2022,08:58:14,0.052,0.0,0.03,0.001
01/03/2022,08:59:15,0.054,0.0,0.031,0.001
01/03/2022,09:00:15,0.058,0.0,0.032,0.001
01/03/2022,09:01:15,0.055,0.0,0.033,0.001
01/03/2022,09:02:14,0.057,0.0,0.034,0.001
01/03/2022,09:03:14,0.060,0.0,0.035,0.001
01/03/2022,09:04:23,0.063,0.0,0.036,0.001
01/03/2022,09:05:15,0.063,0.0,0.037,0.001
01/03/2022,09:06:15,0.068,0.0,0.038,0.001
01/03/2022,09:07:15,0.064,0.0,0.039,0.001
01/03/2022,09:08:15,0.068,0.0,0.04,0.001
01/03/2022,09:09:14,0.067,0.0,0.041,0.001
01/03/2022,09:10:14,0.068,0.0,0.042,0.001
01/03/2022,09:11:14,0.070,0.0,0.043,0.001
01/03/2022,09:12:15,0.069,0.0,0.045,0.002
01/03/2022,09:13:15,0.070,0.0,0.046,0.001
01/03/2022,09:14:23,0.069,0.0,0.047,0.001
01/03/2022,09:15:16,0.069,0.0,0.048,0.001
01/03/2022,09:16:14,0.066,0.0,0.049,0.001
01/03/2022,09:17:23,0.063,0.0,0.05,0.001
01/03/2022,09:18:14,0.066,0.0,0.051,0.001
01/03/2022,09:19:14,0.070,0.0,0.052,0.001
01/03/2022,09:20:15,0.069,0.0,0.054,0.002
01/03/2022,09:21:15,0.076,0.0,0.055,0.001
01/03/2022,09:22:14,0.077,0.0,0.056,0.001
01/03/2022,09:23:14,0.077,0.0,0.057,0.001
01/03/2022,09:24:14,0.077,0.0,0.059,0.002
01/03/2022,09:25:14,0.078,0.0,0.06,0.001
01/03/2022,09:26:14,0.076,0.0,0.061,0.001
01/03/2022,09:27:14,0.079,0.0,0.063,0.002
01/03/2022,09:28:15,0.084,0.0,0.064,0.001
01/03/2022,09:29:15,0.081,0.0,0.065,0.001
01/03/2022,09:30:15,0.090,0.0,0.067,0.002
01/03/2022,09:31:16,0.093,0.0,0.068,0.001
01/03/2022,09:32:15,0.099,0.0,0.07,0.002
01/03/2022,09:33:14,0.102,0.0,0.071,0.001
01/03/2022,09:34:15,0.110,0.0,0.073,0.002
01/03/2022,09:35:15,0.109,0.0,0.075,0.002
01/03/2022,09:36:15,0.110,0.0,0.077,0.002
01/03/2022,09:37:14,0.105,0.0,0.079,0.002
01/03/2022,09:38:14,0.110,0.0,0.08,0.001
01/03/2022,09:39:15,0.114,0.0,0.082,0.002
01/03/2022,09:40:15,0.118,0.0,0.084,0.002
01/03/2022,09:41:15,0.114,0.0,0.086,0.002
01/03/2022,09:42:15,0.109,0.0,0.088,0.002
01/03/2022,09:43:27,0.106,0.0,0.09,0.002
01/03/2022,09:45:15,0.109,0.0,0.094,0.004
01/03/2022,09:46:14,0.110,0.0,0.095,0.001
01/03/2022,09:47:14,0.106,0.0,0.097,0.002
01/03/2022,09:48:07,0.112,0.0,0.099,0.002
01/03/2022,09:49:15,0.105,0.0,0.101,0.002
01/03/2022,09:50:15,0.103,0.0,0.102,0.001
01/03/2022,09:51:15,0.093,0.0,0.104,0.002
01/03/2022,09:52:15,0.090,0.0,0.106,0.002
01/03/2022,09:53:14,0.088,0.0,0.107,0.001
01/03/2022,09:54:23,0.090,0.0,0.109,0.002
01/03/2022,09:55:14,0.085,0.0,0.11,0.001
01/03/2022,09:56:14,0.088,0.0,0.111,0.001
01/03/2022,09:57:15,0.096,0.0,0.113,0.002
01/03/2022,09:58:15,0.082,0.0,0.115,0.002
01/03/2022,09:59:15,0.083,0.0,0.116,0.001
01/03/2022,10:00:14,0.083,0.0,0.117,0.001
01/03/2022,10:01:14,0.093,0.0,0.119,0.002
01/03/2022,10:02:14,0.092,0.0,0.12,0.001
01/03/2022,10:03:15,0.088,0.0,0.122,0.002
01/03/2022,10:04:15,0.101,0.0,0.123,0.001
01/03/2022,10:05:14,0.103,0.0,0.125,0.002
01/03/2022,10:06:14,0.097,0.0,0.127,0.002
01/03/2022,10:07:23,0.101,0.0,0.129,0.002
01/03/2022,10:08:13,0.106,0.0,0.13,0.001
01/03/2022,10:09:15,0.095,0.0,0.132,0.002
01/03/2022,10:10:23,0.094,0.0,0.133,0.001
01/03/2022,10:11:15,0.100,0.0,0.135,0.002
01/03/2022,10:12:15,0.093,0.0,0.137,0.002
01/03/2022,10:13:15,0.105,0.0,0.138,0.001
01/03/2022,10:14:15,0.098,0.0,0.14,0.002
01/03/2022,10:15:14,0.096,0.0,0.142,0.002
01/03/2022,10:16:14,0.100,0.0,0.143,0.001
01/03/2022,10:17:23,0.090,0.0,0.145,0.002
01/03/2022,10:18:13,0.098,0.0,0.146,0.001
01/03/2022,10:19:15,0.093,0.0,0.148,0.002
01/03/2022,10:20:23,0.092,0.0,0.15,0.002
01/03/2022,10:21:16,0.080,0.0,0.151,0.001
01/03/2022,10:22:15,0.091,0.0,0.152,0.001
01/03/2022,10:23:15,0.099,0.0,0.154,0.002
01/03/2022,10:24:15,0.083,0.0,0.155,0.001
01/03/2022,10:25:15,0.093,0.0,0.157,0.002
01/03/2022,10:26:15,0.094,0.0,0.159,0.002
01/03/2022,10:27:14,0.089,0.0,0.16,0.001